| time (UTC) | temp F | wind direction | speed knots | gust knots | rain 1hr in | rain 24hr in | rain mn in | humidity % | barometer mb |
| 20260904112333 | 59 | 70 | 3.5 | 5.2 | 0.00 | 0.00 | 0.00 | 95 | 1014.1 |
| 20260904111828 | 59 | 86 | 2.6 | 5.2 | 0.00 | 0.00 | 0.00 | 95 | 1014.0 |
| 20260904111324 | 59 | 77 | 2.6 | 4.3 | 0.00 | 0.00 | 0.00 | 95 | 1014.2 |
| 20260904110820 | 59 | 109 | 2.6 | 4.3 | 0.00 | 0.00 | 0.00 | 95 | 1014.1 |
| 20260904110319 | 60 | 91 | 4.3 | 5.2 | 0.00 | 0.00 | 0.00 | 95 | 1014.2 |
| 20260904105814 | 59 | 99 | 3.5 | 5.2 | 0.00 | 0.00 | 0.00 | 95 | 1014.4 |
| 20260904105314 | 59 | 103 | 4.3 | 6.1 | 0.00 | 0.00 | 0.00 | 95 | 1014.4 |
| 20260904104809 | 59 | 108 | 3.5 | 4.3 | 0.00 | 0.00 | 0.00 | 95 | 1014.2 |
| 20260904104304 | 59 | 110 | 5.2 | 6.1 | 0.00 | 0.00 | 0.00 | 95 | 1014.3 |
| 20260904103802 | 59 | 105 | 3.5 | 4.3 | 0.00 | 0.00 | 0.00 | 94 | 1014.0 |
| 20260904103300 | 60 | 94 | 4.3 | 5.2 | 0.00 | 0.00 | 0.00 | 94 | 1014.3 |
| 20260904102756 | 60 | 130 | 5.2 | 6.1 | 0.00 | 0.00 | 0.00 | 94 | 1014.1 |
| 20260904102252 | 60 | 92 | 4.3 | 4.3 | 0.00 | 0.00 | 0.00 | 94 | 1013.9 |
| 20260904101748 | 60 | 95 | 5.2 | 6.1 | 0.00 | 0.00 | 0.00 | 94 | 1013.9 |
| 20260904101244 | 60 | 113 | 4.3 | 5.2 | 0.00 | 0.00 | 0.00 | 94 | 1014.1 |
| 20260904100739 | 60 | 111 | 4.3 | 5.2 | 0.00 | 0.00 | 0.00 | 94 | 1013.9 |
| 20260904100235 | 60 | 90 | 6.1 | 7.0 | 0.00 | 0.00 | 0.00 | 94 | 1013.8 |
| 20260904095735 | 60 | 100 | 5.2 | 7.0 | 0.00 | 0.00 | 0.00 | 94 | 1013.7 |
| 20260904095230 | 60 | 76 | 4.3 | 5.2 | 0.00 | 0.00 | 0.00 | 94 | 1013.9 |
| 20260904094725 | 60 | 89 | 4.3 | 5.2 | 0.00 | 0.00 | 0.00 | 94 | 1013.7 |
| 20260904094225 | 60 | 86 | 7.0 | 7.8 | 0.00 | 0.00 | 0.00 | 93 | 1013.6 |
| 20260904093721 | 61 | 83 | 4.3 | 6.1 | 0.00 | 0.00 | 0.00 | 93 | 1013.5 |
| 20260904093220 | 61 | 75 | 5.2 | 7.0 | 0.00 | 0.00 | 0.00 | 93 | 1013.2 |
| 20260904092716 | 61 | 91 | 5.2 | 6.1 | 0.00 | 0.00 | 0.00 | 93 | 1013.4 |
| 20260904092213 | 61 | 104 | 3.5 | 5.2 | 0.00 | 0.00 | 0.00 | 93 | 1013.2 |
| 20260904091708 | 61 | 78 | 6.1 | 7.0 | 0.00 | 0.00 | 0.00 | 93 | 1013.0 |
| 20260904091203 | 61 | 87 | 5.2 | 6.1 | 0.00 | 0.00 | 0.00 | 93 | 1013.1 |
| 20260904090659 | 61 | 74 | 6.1 | 7.8 | 0.00 | 0.00 | 0.00 | 93 | 1013.0 |
| 20260904090155 | 61 | 55 | 6.1 | 7.0 | 0.00 | 0.00 | 0.00 | 93 | 1012.9 |
| 20260904085650 | 61 | 73 | 7.0 | 7.8 | 0.00 | 0.00 | 0.00 | 93 | 1012.7 |
| 20260904085149 | 61 | 66 | 4.3 | 5.2 | 0.00 | 0.00 | 0.00 | 93 | 1012.6 |
| 20260904084644 | 61 | 90 | 6.1 | 6.1 | 0.00 | 0.00 | 0.00 | 93 | 1012.4 |
| 20260904084141 | 61 | 65 | 4.3 | 6.1 | 0.00 | 0.00 | 0.00 | 93 | 1012.9 |
| 20260904083637 | 61 | 75 | 4.3 | 6.1 | 0.00 | 0.00 | 0.00 | 93 | 1012.9 |
| 20260904083133 | 62 | 82 | 4.3 | 6.1 | 0.00 | 0.00 | 0.00 | 93 | 1012.6 |
| 20260904082627 | 62 | 56 | 4.3 | 5.2 | 0.00 | 0.00 | 0.00 | 93 | 1012.3 |
| 20260904082123 | 62 | 82 | 4.3 | 6.1 | 0.00 | 0.00 | 0.00 | 93 | 1012.2 |
| 20260904081618 | 62 | 49 | 4.3 | 7.0 | 0.00 | 0.00 | 0.00 | 93 | 1012.4 |
| 20260904081113 | 62 | 59 | 3.5 | 5.2 | 0.00 | 0.00 | 0.00 | 93 | 1012.5 |
| 20260904080609 | 62 | 54 | 3.5 | 4.3 | 0.00 | 0.00 | 0.00 | 93 | 1012.3 |
| 20260904080105 | 62 | 54 | 4.3 | 6.1 | 0.00 | 0.00 | 0.00 | 93 | 1012.6 |
| 20260904075556 | 62 | 59 | 2.6 | 2.6 | 0.00 | 0.00 | 0.00 | 93 | 1012.7 |
| 20260904075055 | 62 | 75 | 2.6 | 4.3 | 0.00 | 0.00 | 0.00 | 93 | 1012.7 |
| 20260904074555 | 62 | 62 | 1.7 | 1.7 | 0.00 | 0.00 | 0.00 | 93 | 1012.9 |
| 20260904074050 | 62 | 76 | 2.6 | 2.6 | 0.00 | 0.00 | 0.00 | 93 | 1013.0 |
| 20260904073550 | 62 | 66 | 2.6 | 2.6 | 0.00 | 0.00 | 0.00 | 93 | 1012.9 |
| 20260904073047 | 62 | 48 | 2.6 | 4.3 | 0.00 | 0.00 | 0.00 | 93 | 1012.9 |
| 20260904072542 | 62 | 55 | 2.6 | 2.6 | 0.00 | 0.00 | 0.00 | 92 | 1012.6 |
| 20260904072037 | 62 | 65 | 1.7 | 1.7 | 0.00 | 0.00 | 0.00 | 92 | 1012.6 |
| 20260904071532 | 62 | 82 | 2.6 | 2.6 | 0.00 | 0.00 | 0.00 | 92 | 1012.7 |
| 20260904071027 | 62 | 78 | 4.3 | 5.2 | 0.00 | 0.00 | 0.00 | 92 | 1012.7 |
| 20260904070526 | 62 | 131 | 4.3 | 5.2 | 0.00 | 0.00 | 0.00 | 92 | 1012.5 |
| 20260904070021 | 63 | 124 | 2.6 | 2.6 | 0.00 | 0.00 | 0.00 | 92 | 1012.5 |
| 20260904065516 | 63 | 97 | 2.6 | 2.6 | 0.00 | 0.00 | 0.00 | 92 | 1012.9 |
| 20260904065012 | 63 | 93 | 1.7 | 1.7 | 0.00 | 0.00 | 0.00 | 92 | 1012.6 |
| 20260904064508 | 63 | 104 | 1.7 | 1.7 | 0.00 | 0.00 | 0.00 | 92 | 1012.5 |
| 20260904064003 | 63 | 67 | 1.7 | 1.7 | 0.00 | 0.00 | 0.00 | 92 | 1012.5 |
| 20260904063459 | 63 | 89 | 1.7 | 1.7 | 0.00 | 0.00 | 0.00 | 92 | 1012.3 |
| 20260904062954 | 63 | 65 | 1.7 | 1.7 | 0.00 | 0.00 | 0.00 | 92 | 1012.3 |
| 20260904062450 | 64 | 78 | 2.6 | 2.6 | 0.00 | 0.00 | 0.00 | 91 | 1012.2 |
| 20260904061946 | 64 | 74 | 3.5 | 4.3 | 0.00 | 0.00 | 0.00 | 91 | 1012.4 |
| 20260904061442 | 64 | 78 | 4.3 | 5.2 | 0.00 | 0.00 | 0.00 | 91 | 1012.3 |
| 20260904060938 | 64 | 77 | 2.6 | 2.6 | 0.00 | 0.00 | 0.00 | 91 | 1012.1 |
| 20260904060434 | 64 | 82 | 3.5 | 5.2 | 0.00 | 0.00 | 0.00 | 91 | 1011.9 |
| 20260904055929 | 64 | 59 | 4.3 | 5.2 | 0.00 | 0.00 | 0.00 | 91 | 1012.3 |
| 20260904055424 | 64 | 56 | 4.3 | 5.2 | 0.00 | 0.00 | 0.00 | 91 | 1012.1 |
| 20260904054920 | 64 | 57 | 3.5 | 4.3 | 0.00 | 0.00 | 0.00 | 91 | 1012.2 |
| 20260904054410 | 64 | 75 | 4.3 | 5.2 | 0.00 | 0.00 | 0.00 | 91 | 1012.3 |
| 20260904053906 | 64 | 52 | 2.6 | 2.6 | 0.00 | 0.00 | 0.00 | 91 | 1012.3 |
| 20260904053404 | 64 | 56 | 2.6 | 2.6 | 0.00 | 0.00 | 0.00 | 91 | 1012.1 |
| 20260904052900 | 64 | 57 | 3.5 | 4.3 | 0.00 | 0.00 | 0.00 | 91 | 1012.3 |
| 20260904052356 | 64 | 55 | 2.6 | 2.6 | 0.00 | 0.00 | 0.00 | 91 | 1012.2 |
| 20260904051852 | 65 | 60 | 4.3 | 4.3 | 0.00 | 0.00 | 0.00 | 90 | 1012.2 |
| 20260904051348 | 65 | 57 | 3.5 | 4.3 | 0.00 | 0.00 | 0.00 | 90 | 1012.1 |
| 20260904050842 | 66 | 50 | 2.6 | 2.6 | 0.00 | 0.00 | 0.00 | 90 | 1012.5 |
| 20260904050339 | 66 | 55 | 2.6 | 2.6 | 0.00 | 0.00 | 0.00 | 89 | 1012.4 |
| 20260904045833 | 66 | 58 | 1.7 | 2.6 | 0.00 | 0.00 | 0.00 | 89 | 1012.1 |
| 20260904045328 | 66 | 73 | 2.6 | 2.6 | 0.00 | 0.00 | 0.00 | 89 | 1012.2 |
| 20260904044823 | 66 | 69 | 1.7 | 2.6 | 0.00 | 0.00 | 0.00 | 88 | 1012.2 |
| 20260904044319 | 66 | 73 | 2.6 | 4.3 | 0.00 | 0.00 | 0.00 | 88 | 1011.9 |
| 20260904043815 | 66 | 74 | 2.6 | 2.6 | 0.00 | 0.00 | 0.00 | 89 | 1012.3 |
| 20260904043311 | 66 | 63 | 2.6 | 2.6 | 0.00 | 0.00 | 0.00 | 89 | 1012.1 |
| 20260904042806 | 66 | 70 | 1.7 | 1.7 | 0.00 | 0.00 | 0.00 | 88 | 1011.9 |
| 20260904042306 | 66 | 70 | 1.7 | 1.7 | 0.00 | 0.00 | 0.00 | 88 | 1012.0 |
| 20260904041803 | 66 | 73 | 1.7 | 1.7 | 0.00 | 0.00 | 0.00 | 88 | 1012.2 |
| 20260904041259 | 66 | 66 | 2.6 | 2.6 | 0.00 | 0.00 | 0.00 | 88 | 1011.9 |
| 20260904040754 | 67 | 69 | 1.7 | 1.7 | 0.00 | 0.00 | 0.00 | 88 | 1011.9 |
| 20260904040250 | 67 | 64 | 1.7 | 1.7 | 0.00 | 0.00 | 0.00 | 87 | 1011.9 |
| 20260904035746 | 67 | 58 | 1.7 | 1.7 | 0.00 | 0.00 | 0.00 | 87 | 1012.0 |
| 20260904035241 | 68 | 60 | 1.7 | 1.7 | 0.00 | 0.00 | 0.00 | 86 | 1011.7 |
| 20260904034740 | 68 | 59 | 0.9 | 0.9 | 0.00 | 0.00 | 0.00 | 85 | 1011.5 |
| 20260904034236 | 68 | 37 | 2.6 | 2.6 | 0.00 | 0.00 | 0.00 | 85 | 1011.6 |
| 20260904033731 | 69 | 58 | 1.7 | 1.7 | 0.00 | 0.00 | 0.00 | 85 | 1011.6 |
| 20260904033228 | 69 | 53 | 1.7 | 1.7 | 0.00 | 0.00 | 0.00 | 85 | 1011.5 |
| 20260904032723 | 69 | 52 | 1.7 | 1.7 | 0.00 | 0.00 | 0.00 | 85 | 1011.3 |
| 20260904032222 | 68 | 17 | 1.7 | 1.7 | 0.00 | 0.00 | 0.00 | 86 | 1011.2 |
| 20260904031717 | 68 | 26 | 1.7 | 1.7 | 0.00 | 0.00 | 0.00 | 86 | 1011.3 |
| 20260904031213 | 69 | 30 | 1.7 | 1.7 | 0.00 | 0.00 | 0.00 | 84 | 1011.2 |
| 20260904030708 | 71 | 45 | 0.9 | 0.9 | 0.00 | 0.00 | 0.00 | 82 | 1011.3 |
| 20260904030203 | 70 | 45 | 2.6 | 4.3 | 0.00 | 0.00 | 0.00 | 83 | 1011.3 |
| 20260904025700 | 69 | 45 | 1.7 | 1.7 | 0.00 | 0.00 | 0.00 | 84 | 1011.2 |
| 20260904025154 | 70 | 60 | 2.6 | 2.6 | 0.00 | 0.00 | 0.00 | 83 | 1010.9 |
| 20260904024650 | 71 | 60 | 1.7 | 1.7 | 0.00 | 0.00 | 0.00 | 82 | 1010.9 |
| 20260904024145 | 70 | 46 | 2.6 | 2.6 | 0.00 | 0.00 | 0.00 | 83 | 1010.8 |
| 20260904023641 | 70 | 58 | 1.7 | 1.7 | 0.00 | 0.00 | 0.00 | 84 | 1010.9 |
| 20260904023137 | 70 | 56 | 2.6 | 2.6 | 0.00 | 0.00 | 0.00 | 83 | 1010.9 |
| 20260904022637 | 70 | 46 | 2.6 | 2.6 | 0.00 | 0.00 | 0.00 | 83 | 1010.8 |
| 20260904022134 | 70 | 52 | 1.7 | 1.7 | 0.00 | 0.00 | 0.00 | 84 | 1010.9 |
| 20260904021630 | 70 | 47 | 1.7 | 1.7 | 0.00 | 0.00 | 0.00 | 83 | 1010.7 |
| 20260904021125 | 69 | 35 | 1.7 | 1.7 | 0.00 | 0.00 | 0.00 | 85 | 1010.9 |
| 20260904020620 | 70 | 61 | 1.7 | 1.7 | 0.00 | 0.00 | 0.00 | 85 | 1010.8 |
| 20260904020109 | 70 | 79 | 1.7 | 1.7 | 0.00 | 0.00 | 0.00 | 84 | 1010.9 |
| 20260904015603 | 70 | 52 | 1.7 | 1.7 | 0.00 | 0.00 | 0.00 | 84 | 1010.8 |
| 20260904015102 | 71 | 70 | 1.7 | 1.7 | 0.00 | 0.00 | 0.00 | 83 | 1010.7 |
| 20260904014556 | 71 | 74 | 0.9 | 0.9 | 0.00 | 0.00 | 0.00 | 82 | 1010.5 |
| 20260904014052 | 71 | 60 | 0.9 | 0.9 | 0.00 | 0.00 | 0.00 | 82 | 1010.4 |
| 20260904013548 | 71 | 57 | 0.9 | 1.7 | 0.00 | 0.00 | 0.00 | 83 | 1010.5 |
| 20260904013044 | 71 | 60 | 0.9 | 0.9 | 0.00 | 0.00 | 0.00 | 83 | 1010.2 |
| 20260904012544 | 71 | 57 | 0.9 | 0.9 | 0.00 | 0.00 | 0.00 | 82 | 1010.2 |
| 20260904012038 | 72 | 63 | 1.7 | 1.7 | 0.00 | 0.00 | 0.00 | 81 | 1010.3 |
| 20260904011537 | 72 | 71 | 0.0 | 0.0 | 0.00 | 0.00 | 0.00 | 82 | 1010.1 |
| 20260904011033 | 73 | 72 | 0.0 | 0.0 | 0.00 | 0.00 | 0.00 | 81 | 1010.2 |
| 20260904010529 | 73 | 87 | 0.0 | 0.0 | 0.00 | 0.00 | 0.00 | 80 | 1010.0 |
| 20260904010025 | 74 | 87 | 0.0 | 0.0 | 0.00 | 0.00 | 0.00 | 79 | 1010.1 |
| 20260904005525 | 75 | 86 | 0.9 | 0.9 | 0.00 | 0.00 | 0.00 | 77 | 1009.9 |
| 20260904005021 | 76 | 98 | 0.0 | 0.0 | 0.00 | 0.00 | 0.00 | 76 | 1010.0 |
| 20260904004516 | 76 | 78 | 0.0 | 0.9 | 0.00 | 0.00 | 0.00 | 76 | 1009.7 |
| 20260904004016 | 77 | 103 | 0.9 | 0.9 | 0.00 | 0.00 | 0.00 | 74 | 1010.0 |
| 20260904003513 | 77 | 79 | 0.0 | 0.0 | 0.00 | 0.00 | 0.00 | 74 | 1009.8 |
| 20260904003008 | 78 | 152 | 0.9 | 0.9 | 0.00 | 0.00 | 0.00 | 71 | 1009.7 |
| 20260904002504 | 78 | 80 | 0.9 | 0.9 | 0.00 | 0.00 | 0.00 | 72 | 1010.0 |
| 20260904002003 | 78 | 101 | 0.0 | 0.0 | 0.00 | 0.00 | 0.00 | 70 | 1009.8 |
| 20260904001459 | 78 | 79 | 0.9 | 0.9 | 0.00 | 0.00 | 0.00 | 71 | 1009.8 |
| 20260904000959 | 79 | 115 | 0.0 | 0.0 | 0.00 | 0.00 | 0.00 | 70 | 1009.8 |
| 20260904000458 | 79 | 115 | 0.0 | 0.0 | 0.00 | 0.00 | 0.00 | 71 | 1009.8 |
| 20260903235954 | 80 | 121 | 0.0 | 0.0 | 0.00 | 0.00 | 0.00 | 68 | 1010.0 |
| 20260903235449 | 79 | 120 | 0.0 | 0.9 | 0.00 | 0.00 | 0.00 | 69 | 1009.9 |
| 20260903234943 | 79 | 181 | 0.9 | 0.9 | 0.00 | 0.00 | 0.00 | 69 | 1009.8 |
| 20260903234440 | 78 | 187 | 1.7 | 1.7 | 0.00 | 0.00 | 0.00 | 70 | 1009.9 |
| 20260903233936 | 78 | 141 | 2.6 | 2.6 | 0.00 | 0.00 | 0.00 | 71 | 1009.9 |
| 20260903233431 | 78 | 104 | 1.7 | 1.7 | 0.00 | 0.00 | 0.00 | 71 | 1009.8 |
| 20260903232926 | 78 | 115 | 0.0 | 0.9 | 0.00 | 0.00 | 0.00 | 70 | 1009.6 |
| 20260903232420 | 79 | 132 | 1.7 | 1.7 | 0.00 | 0.00 | 0.00 | 70 | 1009.6 |
| 20260903231915 | 78 | 169 | 2.6 | 4.3 | 0.00 | 0.00 | 0.00 | 70 | 1009.5 |
| 20260903231410 | 78 | 107 | 2.6 | 2.6 | 0.00 | 0.00 | 0.00 | 71 | 1009.5 |
| 20260903230905 | 78 | 150 | 3.5 | 4.3 | 0.00 | 0.00 | 0.00 | 71 | 1009.6 |
| 20260903230400 | 77 | 155 | 2.6 | 2.6 | 0.00 | 0.00 | 0.00 | 72 | 1009.0 |
| 20260903225856 | 78 | 147 | 5.2 | 6.1 | 0.00 | 0.00 | 0.00 | 73 | 1009.0 |
| 20260903225352 | 78 | 102 | 6.1 | 7.0 | 0.00 | 0.00 | 0.00 | 72 | 1009.0 |
| 20260903224847 | 78 | 93 | 2.6 | 2.6 | 0.00 | 0.00 | 0.00 | 72 | 1009.2 |
| 20260903224338 | 78 | 122 | 3.5 | 4.3 | 0.00 | 0.00 | 0.00 | 72 | 1008.9 |
| 20260903223833 | 78 | 61 | 3.5 | 4.3 | 0.00 | 0.00 | 0.00 | 72 | 1009.2 |
| 20260903223332 | 78 | 74 | 2.6 | 2.6 | 0.00 | 0.00 | 0.00 | 72 | 1009.0 |
| 20260903222827 | 77 | 52 | 3.5 | 4.3 | 0.00 | 0.00 | 0.00 | 73 | 1008.9 |
| 20260903222327 | 78 | 68 | 2.6 | 4.3 | 0.00 | 0.00 | 0.00 | 72 | 1008.9 |
| 20260903221821 | 78 | 101 | 3.5 | 4.3 | 0.00 | 0.00 | 0.00 | 73 | 1008.9 |
| 20260903221320 | 77 | 108 | 1.7 | 1.7 | 0.00 | 0.00 | 0.00 | 73 | 1008.9 |
| 20260903220818 | 77 | 107 | 0.9 | 0.9 | 0.00 | 0.00 | 0.00 | 74 | 1008.8 |
| 20260903220312 | 76 | 106 | 2.6 | 2.6 | 0.00 | 0.00 | 0.00 | 74 | 1008.8 |
| 20260903215811 | 77 | 111 | 3.5 | 5.2 | 0.00 | 0.00 | 0.00 | 75 | 1008.8 |
| 20260903215308 | 77 | 39 | 4.3 | 5.2 | 0.00 | 0.00 | 0.00 | 75 | 1008.7 |
| 20260903214805 | 77 | 91 | 1.7 | 1.7 | 0.00 | 0.00 | 0.00 | 76 | 1008.6 |
| 20260903214301 | 77 | 106 | 2.6 | 4.3 | 0.00 | 0.00 | 0.00 | 76 | 1008.7 |
| 20260903213755 | 77 | 78 | 4.3 | 6.1 | 0.00 | 0.00 | 0.00 | 76 | 1008.8 |
| 20260903213251 | 76 | 98 | 3.5 | 4.3 | 0.00 | 0.00 | 0.00 | 76 | 1008.7 |
| 20260903212741 | 77 | 84 | 3.5 | 6.1 | 0.00 | 0.00 | 0.00 | 76 | 1008.8 |
| 20260903212238 | 76 | 104 | 2.6 | 4.3 | 0.00 | 0.00 | 0.00 | 77 | 1008.7 |
| 20260903211736 | 76 | 88 | 3.5 | 4.3 | 0.00 | 0.00 | 0.00 | 77 | 1008.6 |
| 20260903211234 | 75 | 60 | 2.6 | 2.6 | 0.00 | 0.00 | 0.00 | 78 | 1008.6 |
| 20260903210729 | 76 | 31 | 2.6 | 4.3 | 0.00 | 0.00 | 0.00 | 77 | 1008.7 |
| 20260903210225 | 75 | 50 | 3.5 | 5.2 | 0.00 | 0.00 | 0.00 | 79 | 1008.5 |
| 20260903205718 | 75 | 28 | 5.2 | 6.1 | 0.00 | 0.00 | 0.00 | 79 | 1008.6 |
| 20260903205217 | 75 | 62 | 3.5 | 5.2 | 0.00 | 0.00 | 0.00 | 80 | 1008.7 |
| 20260903204713 | 75 | 20 | 3.5 | 4.3 | 0.00 | 0.00 | 0.00 | 79 | 1008.8 |
| 20260903204210 | 74 | 77 | 3.5 | 6.1 | 0.00 | 0.00 | 0.00 | 79 | 1008.7 |
| 20260903203704 | 73 | 80 | 2.6 | 4.3 | 0.00 | 0.00 | 0.00 | 81 | 1008.7 |
| 20260903203200 | 72 | 48 | 5.2 | 5.2 | 0.00 | 0.00 | 0.00 | 82 | 1008.7 |
| 20260903202654 | 72 | 38 | 4.3 | 6.1 | 0.00 | 0.00 | 0.00 | 82 | 1009.0 |
| 20260903202150 | 72 | 58 | 2.6 | 4.3 | 0.00 | 0.00 | 0.00 | 82 | 1009.3 |
| 20260903201643 | 73 | 28 | 2.6 | 2.6 | 0.00 | 0.00 | 0.00 | 82 | 1008.8 |
| 20260903201138 | 72 | 44 | 4.3 | 6.1 | 0.00 | 0.00 | 0.00 | 83 | 1008.7 |
| 20260903200633 | 72 | 27 | 3.5 | 5.2 | 0.00 | 0.00 | 0.00 | 84 | 1008.7 |
| 20260903200129 | 71 | 48 | 3.5 | 5.2 | 0.00 | 0.00 | 0.00 | 83 | 1008.6 |
| 20260903195624 | 71 | 28 | 4.3 | 5.2 | 0.00 | 0.00 | 0.00 | 84 | 1008.8 |
| 20260903195120 | 71 | 46 | 2.6 | 4.3 | 0.00 | 0.00 | 0.00 | 84 | 1008.5 |
| 20260903194614 | 71 | 74 | 1.7 | 2.6 | 0.00 | 0.00 | 0.00 | 84 | 1008.3 |
| 20260903194114 | 71 | 31 | 4.3 | 5.2 | 0.00 | 0.00 | 0.00 | 84 | 1008.1 |
| 20260903193611 | 71 | 48 | 4.3 | 7.0 | 0.00 | 0.00 | 0.00 | 84 | 1008.3 |
| 20260903193106 | 71 | 40 | 2.6 | 5.2 | 0.00 | 0.00 | 0.00 | 85 | 1008.7 |
| 20260903192603 | 71 | 32 | 4.3 | 7.0 | 0.00 | 0.00 | 0.00 | 85 | 1008.4 |
| 20260903192103 | 71 | 30 | 4.3 | 5.2 | 0.00 | 0.00 | 0.00 | 84 | 1008.7 |
| 20260903191559 | 71 | 35 | 1.7 | 2.6 | 0.00 | 0.00 | 0.00 | 86 | 1008.6 |
| 20260903191054 | 70 | 31 | 3.5 | 4.3 | 0.00 | 0.00 | 0.00 | 86 | 1008.9 |
| 20260903190553 | 70 | 27 | 2.6 | 2.6 | 0.00 | 0.00 | 0.00 | 86 | 1008.9 |
| 20260903190053 | 71 | 326 | 3.5 | 4.3 | 0.00 | 0.00 | 0.00 | 85 | 1009.3 |
| 20260903185548 | 71 | 299 | 2.6 | 2.6 | 0.00 | 0.00 | 0.00 | 85 | 1009.0 |
| 20260903185044 | 71 | 31 | 0.9 | 1.7 | 0.00 | 0.00 | 0.00 | 86 | 1008.8 |
| 20260903184540 | 71 | 43 | 2.6 | 4.3 | 0.00 | 0.00 | 0.00 | 86 | 1008.7 |
| 20260903184035 | 71 | 26 | 1.7 | 1.7 | 0.00 | 0.00 | 0.00 | 86 | 1008.7 |
| 20260903183534 | 71 | 35 | 0.9 | 0.9 | 0.00 | 0.00 | 0.00 | 85 | 1008.7 |
| 20260903183029 | 71 | 45 | 1.7 | 1.7 | 0.00 | 0.00 | 0.00 | 86 | 1008.9 |
| 20260903182527 | 70 | 124 | 2.6 | 2.6 | 0.00 | 0.00 | 0.00 | 86 | 1008.8 |
| 20260903182024 | 70 | 42 | 2.6 | 2.6 | 0.00 | 0.00 | 0.00 | 86 | 1008.4 |
| 20260903181517 | 71 | 55 | 4.3 | 5.2 | 0.00 | 0.00 | 0.00 | 86 | 1008.2 |
| 20260903181017 | 70 | 49 | 4.3 | 5.2 | 0.00 | 0.00 | 0.00 | 87 | 1008.2 |
| 20260903180513 | 69 | 60 | 2.6 | 2.6 | 0.00 | 0.00 | 0.00 | 88 | 1008.3 |
| 20260903180007 | 69 | 52 | 2.6 | 4.3 | 0.00 | 0.00 | 0.00 | 89 | 1008.1 |
| 20260903175506 | 68 | 48 | 4.3 | 5.2 | 0.00 | 0.00 | 0.00 | 89 | 1008.2 |
| 20260903175005 | 68 | 74 | 5.2 | 6.1 | 0.00 | 0.00 | 0.00 | 90 | 1008.2 |
| 20260903174500 | 67 | 44 | 3.5 | 4.3 | 0.00 | 0.00 | 0.00 | 91 | 1008.3 |
| 20260903174000 | 66 | 32 | 4.3 | 5.2 | 0.00 | 0.00 | 0.00 | 92 | 1008.0 |
| 20260903173455 | 66 | 39 | 5.2 | 7.0 | 0.00 | 0.00 | 0.00 | 92 | 1008.1 |
| 20260903172950 | 66 | 47 | 7.0 | 8.7 | 0.00 | 0.00 | 0.00 | 93 | 1007.8 |
| 20260903172445 | 66 | 37 | 6.1 | 9.6 | 0.00 | 0.00 | 0.00 | 93 | 1007.8 |
| 20260903171941 | 65 | 47 | 7.0 | 8.7 | 0.00 | 0.00 | 0.00 | 93 | 1007.5 |
| 20260903171431 | 65 | 13 | 4.3 | 6.1 | 0.00 | 0.00 | 0.00 | 92 | 1007.8 |
| 20260903170931 | 66 | 24 | 5.2 | 7.0 | 0.00 | 0.00 | 0.00 | 91 | 1007.8 |
| 20260903170425 | 67 | 12 | 5.2 | 6.1 | 0.00 | 0.00 | 0.00 | 90 | 1007.8 |
| 20260903165924 | 69 | 22 | 3.5 | 5.2 | 0.00 | 0.00 | 0.00 | 90 | 1007.4 |
| 20260903165418 | 68 | 43 | 1.7 | 1.7 | 0.00 | 0.00 | 0.00 | 90 | 1007.5 |
| 20260903164913 | 69 | 356 | 1.7 | 1.7 | 0.00 | 0.00 | 0.00 | 90 | 1007.5 |
| 20260903164408 | 68 | 65 | 1.7 | 1.7 | 0.00 | 0.00 | 0.00 | 90 | 1007.6 |
| 20260903163908 | 69 | 33 | 1.7 | 1.7 | 0.00 | 0.00 | 0.00 | 89 | 1007.5 |
| 20260903163404 | 68 | 22 | 2.6 | 2.6 | 0.00 | 0.00 | 0.00 | 89 | 1007.5 |
| 20260903162900 | 68 | 32 | 1.7 | 1.7 | 0.00 | 0.00 | 0.00 | 89 | 1007.6 |
| 20260903162356 | 69 | 60 | 1.7 | 1.7 | 0.00 | 0.00 | 0.00 | 89 | 1007.4 |
| 20260903161852 | 69 | 43 | 2.6 | 2.6 | 0.00 | 0.00 | 0.00 | 89 | 1007.1 |
| 20260903161347 | 69 | 63 | 2.6 | 2.6 | 0.00 | 0.00 | 0.00 | 89 | 1006.8 |
| 20260903160843 | 68 | 60 | 4.3 | 5.2 | 0.00 | 0.00 | 0.00 | 89 | 1006.8 |
| 20260903160341 | 68 | 55 | 2.6 | 2.6 | 0.00 | 0.00 | 0.00 | 89 | 1006.8 |
| 20260903155840 | 68 | 51 | 2.6 | 4.3 | 0.00 | 0.00 | 0.00 | 89 | 1006.8 |
| 20260903155335 | 68 | 33 | 4.3 | 5.2 | 0.00 | 0.00 | 0.00 | 89 | 1006.6 |
| 20260903154831 | 68 | 25 | 6.1 | 7.0 | 0.00 | 0.00 | 0.00 | 89 | 1006.8 |
| 20260903154327 | 68 | 75 | 2.6 | 2.6 | 0.00 | 0.00 | 0.00 | 89 | 1006.6 |
| 20260903153822 | 68 | 59 | 3.5 | 4.3 | 0.00 | 0.00 | 0.00 | 89 | 1006.4 |
| 20260903153318 | 68 | 97 | 2.6 | 4.3 | 0.00 | 0.00 | 0.00 | 89 | 1006.3 |
| 20260903152815 | 68 | 69 | 4.3 | 5.2 | 0.00 | 0.00 | 0.00 | 89 | 1006.2 |
| 20260903152310 | 67 | 88 | 3.5 | 4.3 | 0.00 | 0.00 | 0.00 | 90 | 1006.2 |
| 20260903151810 | 67 | 62 | 3.5 | 5.2 | 0.00 | 0.00 | 0.00 | 90 | 1006.2 |
| 20260903151305 | 67 | 105 | 4.3 | 4.3 | 0.00 | 0.00 | 0.00 | 90 | 1006.3 |
| 20260903150759 | 67 | 52 | 2.6 | 4.3 | 0.00 | 0.00 | 0.00 | 90 | 1006.4 |
| 20260903150253 | 67 | 74 | 5.2 | 7.8 | 0.00 | 0.00 | 0.00 | 90 | 1006.5 |
| 20260903145750 | 67 | 79 | 4.3 | 6.1 | 0.00 | 0.00 | 0.00 | 90 | 1006.7 |
| 20260903145245 | 66 | 68 | 3.5 | 6.1 | 0.00 | 0.00 | 0.00 | 90 | 1006.7 |
| 20260903144743 | 66 | 71 | 2.6 | 2.6 | 0.00 | 0.00 | 0.00 | 91 | 1006.8 |
| 20260903144239 | 66 | 50 | 7.0 | 7.8 | 0.00 | 0.00 | 0.00 | 90 | 1006.9 |
| 20260903143735 | 66 | 64 | 4.3 | 6.1 | 0.00 | 0.00 | 0.00 | 90 | 1007.0 |
| 20260903143231 | 66 | 53 | 2.6 | 5.2 | 0.00 | 0.00 | 0.00 | 90 | 1007.1 |
| 20260903142727 | 66 | 45 | 5.2 | 6.1 | 0.00 | 0.00 | 0.00 | 90 | 1007.1 |
| 20260903142223 | 66 | 28 | 4.3 | 6.1 | 0.00 | 0.00 | 0.00 | 90 | 1007.2 |
| 20260903141717 | 66 | 56 | 4.3 | 5.2 | 0.00 | 0.00 | 0.00 | 89 | 1007.5 |
| 20260903141213 | 66 | 32 | 2.6 | 2.6 | 0.00 | 0.00 | 0.00 | 89 | 1007.6 |
| 20260903140708 | 66 | 42 | 3.5 | 4.3 | 0.00 | 0.00 | 0.00 | 89 | 1007.8 |
| 20260903140203 | 65 | 62 | 2.6 | 2.6 | 0.00 | 0.00 | 0.00 | 89 | 1007.8 |
| 20260903135659 | 65 | 53 | 1.7 | 1.7 | 0.00 | 0.00 | 0.00 | 89 | 1007.8 |
| 20260903135154 | 65 | 47 | 2.6 | 2.6 | 0.00 | 0.00 | 0.00 | 89 | 1008.0 |
| 20260903134653 | 64 | 13 | 1.7 | 1.7 | 0.00 | 0.00 | 0.00 | 89 | 1008.0 |
| 20260903134149 | 64 | 45 | 1.7 | 1.7 | 0.00 | 0.00 | 0.00 | 89 | 1007.7 |
| 20260903133646 | 64 | 58 | 0.0 | 0.9 | 0.00 | 0.00 | 0.00 | 89 | 1007.6 |
| 20260903133142 | 64 | 86 | 1.7 | 1.7 | 0.00 | 0.00 | 0.00 | 89 | 1007.4 |
| 20260903132636 | 64 | 56 | 1.7 | 1.7 | 0.00 | 0.00 | 0.00 | 89 | 1007.1 |
| 20260903132131 | 64 | 96 | 0.9 | 0.9 | 0.00 | 0.00 | 0.00 | 89 | 1007.5 |
| 20260903131626 | 64 | 155 | 3.5 | 4.3 | 0.00 | 0.00 | 0.00 | 89 | 1007.0 |
| 20260903131125 | 64 | 102 | 5.2 | 7.0 | 0.00 | 0.00 | 0.00 | 89 | 1006.7 |
| 20260903130620 | 63 | 79 | 7.0 | 8.7 | 0.00 | 0.00 | 0.00 | 89 | 1006.6 |
| 20260903130114 | 63 | 74 | 8.7 | 9.6 | 0.00 | 0.00 | 0.00 | 89 | 1006.2 |
| 20260903125613 | 63 | 73 | 9.6 | 11.3 | 0.00 | 0.00 | 0.00 | 89 | 1006.2 |
| 20260903125103 | 63 | 56 | 7.8 | 9.6 | 0.00 | 0.00 | 0.00 | 89 | 1006.1 |
| 20260903124602 | 63 | 84 | 9.6 | 11.3 | 0.00 | 0.00 | 0.00 | 89 | 1006.1 |
| 20260903124057 | 63 | 70 | 7.8 | 9.6 | 0.00 | 0.00 | 0.00 | 89 | 1006.4 |
| 20260903123556 | 63 | 110 | 6.1 | 7.0 | 0.00 | 0.00 | 0.00 | 88 | 1006.2 |
| 20260903123054 | 63 | 96 | 7.0 | 8.7 | 0.00 | 0.00 | 0.00 | 89 | 1006.3 |
| 20260903122549 | 63 | 78 | 7.8 | 9.6 | 0.00 | 0.00 | 0.00 | 88 | 1006.1 |
| 20260903122048 | 63 | 95 | 6.1 | 7.0 | 0.00 | 0.00 | 0.00 | 88 | 1006.4 |
| 20260903121543 | 62 | 126 | 7.0 | 7.8 | 0.00 | 0.00 | 0.00 | 88 | 1006.4 |
| 20260903121039 | 62 | 100 | 6.1 | 8.7 | 0.00 | 0.00 | 0.00 | 88 | 1006.3 |
| 20260903120538 | 62 | 83 | 6.1 | 8.7 | 0.00 | 0.00 | 0.00 | 87 | 1006.3 |
| 20260903120033 | 62 | 114 | 4.3 | 5.2 | 0.00 | 0.00 | 0.00 | 87 | 1006.4 |
| 20260903115531 | 62 | 96 | 5.2 | 7.0 | 0.00 | 0.00 | 0.00 | 87 | 1006.4 |
| 20260903115026 | 62 | 102 | 5.2 | 7.0 | 0.00 | 0.00 | 0.00 | 86 | 1006.3 |
| 20260903114521 | 62 | 78 | 7.0 | 8.7 | 0.00 | 0.00 | 0.00 | 86 | 1006.5 |
| 20260903114017 | 62 | 75 | 5.2 | 7.0 | 0.00 | 0.00 | 0.00 | 86 | 1006.7 |
| 20260903113513 | 62 | 85 | 4.3 | 5.2 | 0.00 | 0.00 | 0.00 | 85 | 1006.8 |
| 20260903113009 | 62 | 87 | 3.5 | 5.2 | 0.00 | 0.00 | 0.00 | 85 | 1007.0 |